sat.trackr.live / text

‹ back to catalog

APRIZESAT 7

NORAD 39416 · 2013-066A

PAYLOAD ACTIVE UNKNOWN

§ Identity

Operator
Country
US
Launch date
2013-11-21
Launch site
DLS
Launch vehicle
Mass (kg)
RCS (m²)
0.11

Purposes: tech_demo

External: N2YO · Heavens-Above · Gunter

§ Orbital elements

Epoch: 2026-05-25T03:26:22.009056Z

Period
96.55 min
Inclination
97.7696°
Eccentricity
0.0034349
Mean motion
14.91503708 rev/d
Perigee alt
569.3 km
Apogee alt
617.2 km
Semi-major
6,971.4 km
B*
1.1761e-4
RAAN
98.6973°
Arg perigee
288.7157°
Mean anomaly
71.0335°
Rev number
67,779

§ Raw data

APRIZESAT 71 39416U 13066A   26145.14331029  .00001132  00000+0  11761-3 0  99952 39416  97.7696  98.6973 0034349 288.7157  71.0335 14.91503708677795

JSON: /api/v1/satellites/39416 · /tle

For live sub-satellite position, see the globe view (requires WebGL).

§ Visibility from observer

Set your observer location to see the next 7 days of passes ≥ 10°. The values pass through the URL so the page stays shareable.

No JS? Fill the form by hand. The geolocation button needs JavaScript.

§ Radio — SatNOGS DB

ModeDescriptionDownlinkUplink
GMSK Store and dump 400.585 MHz

1 transmitter · refreshed weekly from db.satnogs.org